Zurück zum Katalog

COSMOS 44

AktivMilitärLEO
NORAD 876·PAYLOAD·🇷🇺 Russia

Gestartet Aug 28, 1964 von Baikonur Cosmodrome

Loading…

Nächste Überflüge (nächste 24 Stunden)

TLE

AktuellSource: Space-Track

Epoche: Sep 14, 2026, 12:07 UTC

1 00876U 64053A   26257.50512751  .00000126  00000-0  42173-4 0  9997
2 00876  65.0588  61.7468 0147972 231.8835 126.8852 14.65768301301767

Verfolge COSMOS 44 in Echtzeit mit AllMySat

Download on the App Store